Погода в Миддельфарте

Дания     55°31′53″N   9°46′51″E
темп.,
°C
ветер,
м/с
пор.,
м/с
влажн.,
%
обл.,
%
осадки,
мм/ч
давл.,
гПа
погр.,
м
21 января, чт
чт2101:00+6ююз101677100 0.8 989301
04:00+6ю10168592 0.0 986301
07:00+6ю13218593 0.0 982437
10:00+6юз14227594 2.0 982753
13:00+5ююз13207064 2.0 985747
16:00+5ююз12227285 0.1 985844
19:00+5ююз14237791 1.2 984823
22:00+5ююз12217899 0.3 984686
22 января, пт
пт2201:00+4ююз101682100 0.4 984401
04:00+3ю6996100 1.3 980228
07:00+3юз61096100 4.9 979339
10:00+4юз10177867 0.1 981592
13:00+5юз11186958 0.1 983694
16:00+4юз11187337 0.0 984705
19:00+3зюз10158966 1.0 987541
22:00+3зюз7128463 0.1 990269
23 января, сб
сб2301:00+3юз698232 0.1 992171
04:00+2ююз59880 0.0 993193
07:00+2ююз59900 0.0 994178
10:00+2ююз589117 0.0 994212
13:00+2ююз458959 0.0 995138
16:00+2ю3390100 0.0 99441
19:00+2ююв2391100 0.0 99538
22:00+1ююв3390100 0.0 99481
24 января, вс
вс2401:00+1юв3388100 0.0 99598
04:00+1вюв3389100 0.0 994116
07:000вюв3397100 0.3 994143
10:00+1ю3497100 1.0 995193
13:00+1юз4597100 1.1 995334
16:00+1з6893100 0.1 996560
19:000зюз468988 0.1 997248
22:000зюз34870 0.0 998149
25 января, пн
пн2501:000зюз45850 0.0 999168
04:00+1юз46800 0.0 1000162
07:00+1зюз45810 0.0 1001139
10:00+1зюз34790 0.0 100296
13:00+2зюз46760 0.0 1003169
16:00+2з6107615 0.2 1005243
19:00+1з588216 0.2 1006164
22:00+1зюз598446 0.0 1007210